Location: Gorrie
(43.8742°N, 81.1087°W)
Time: 16:48:27
(UTC+00:00)

NOSS 3-1 (C) - Pass Details

Date: 09 December 2025
Orbit: 618 x 1583 km, 63.4° (Epoch: 10 January)

Event Time Altitude Azimuth Distance (km) Brightness Sun altitude
Exits shadow 09:58:59 39° 344° (NNW) 1,724 4.5 -29.4°
Maximum altitude 10:01:58 64° 49° (NE) 1,394 4.3 -28.8°
Drops below altitude 10° 10:10:43 10° 130° (SE) 3,583 7.1 -27.3°
Sets 10:13:58 0° 134° (SE) 4,647 7.8 -26.7°
